Home > Time Zones > World Clock > Weather > U.S.A. > Waco > Past weeks

Flag for U.S.A. Weather past 2 weeks in Waco, Texas, U.S.A.

Now
76 °F

Clear.


Feels Like: 77 °F
Forecast: 72 / 91 °F
Wind: 8 mph from Southeast

Location: Waco Regional Airport

Current Time: Sep 3, 2015 at 4:38:46 AM

Latest Report: Sep 3, 2015 at 3:51 AM


Visibility: 10 mi

Pressure: 29.93 "Hg

Humidity: 80%

Dew point: 69 °F

Location of WacoLocation

Historic Weather in Waco — Graph

°F

Waco temperature yesterday

Maximum temperature yesterday: 93 °F (at 2:51 PM)
Minimum temperature yesterday: 72 °F (at 5:51 AM)
Average temperature yesterday: 82 °F

Past Weeks' High & Low Weather Summary

 TemperatureHumidityPressure
High98 °F (Aug 23, 3:51 PM)93% (Aug 20, 4:59 PM)30.13 "Hg (Aug 20, 4:59 PM)
Low67 °F (Aug 27, 6:51 AM)27% (Aug 26, 5:51 PM)29.73 "Hg (Aug 19, 2:51 AM)
Average83 °F62%29.97 "Hg
* Reported Aug 19 2:51 AM — Sep 3 2:51 AM, Waco, Weather by CustomWeather, © 2015

Note: Actual official high and low records may vary slightly from our data, if they occured in-between our weather recording intervals... More about our weather records

Advertising

Waco weather history for previous 24 hours

 ConditionsComfort  
Time TempWeatherWind HumidityBarometerVisibility
2:51 AM
Thu, Sep 3
76 °FClear.8 mph80%29.92 "Hg10 mi
1:51 AM78 °FClear.9 mph74%29.93 "Hg10 mi
12:51 AM79 °FClear.9 mph69%29.94 "Hg10 mi
11:51 PM
Wed, Sep 2
81 °FClear.12 mph62%29.94 "Hg10 mi
10:51 PM83 °FClear.12 mph59%29.93 "Hg10 mi
9:51 PM84 °FPassing clouds.8 mph55%29.93 "Hg10 mi
8:51 PM84 °FClear.8 mph51%29.92 "Hg10 mi
7:51 PM87 °FSunny.7 mph45%29.90 "Hg10 mi
6:51 PM91 °FPassing clouds.8 mph38%29.90 "Hg10 mi
5:51 PM92 °FSunny.10 mph38%29.90 "Hg10 mi
4:51 PM92 °FScattered clouds.6 mph38%29.92 "Hg10 mi
3:51 PM91 °FScattered clouds.8 mph41%29.94 "Hg10 mi
2:51 PM93 °FPassing clouds.10 mph38%29.98 "Hg10 mi
1:51 PM90 °FScattered clouds.8 mph45%30.00 "Hg10 mi
12:51 PM87 °FSunny.7 mph50%30.02 "Hg10 mi
11:51 AM85 °FScattered clouds.5 mph55%30.05 "Hg10 mi
10:51 AM82 °FPartly sunny.7 mph65%30.05 "Hg10 mi
9:51 AM79 °FScattered clouds.7 mph72%30.05 "Hg10 mi
8:51 AM77 °FPartly sunny.7 mph79%30.05 "Hg10 mi
8:02 AM75 °FPassing clouds.10 mph85%30.07 "Hg10 mi
7:51 AM74 °FClear.8 mph88%30.04 "Hg10 mi
6:51 AM73 °FClear.8 mph88%30.03 "Hg10 mi
5:51 AM72 °FPassing clouds.8 mph91%30.02 "Hg10 mi
4:51 AM73 °FPassing clouds.8 mph84%30.02 "Hg10 mi
Weather by CustomWeather, © 2015

See weather overviewHow to use our weather pages